Lid_Strength_Index
3 4 4 5 5 6 6 7 8 11 11 11 12 11 10 10 10 9 8 7 4 4 4 4 5 5 6 7 6 6 6 6 6 6 6 5 5 5
3 4 5 5 5 5 6 6 6 8 11 11 12 12 11 10 10 9 9 8 7 6 6 6 5 6 6 7 7 7 7 7 7 7 6 6 6 5
3 4 4 4 4 5 5 6 7 8 11 13 12 11 11 11 10 10 9 8 8 7 7 6 6 6 7 7 7 7 8 8 8 7 7 7 7 6
4 3 4 4 5 5 5 6 8 9 11 13 13 12 11 11 11 10 9 9 9 8 7 7 7 7 8 8 7 8 8 8 8 8 8 7 7 7
3 4 4 4 6 6 6 8 9 9 10 11 13 12 12 11 12 11 10 10 10 9 8 8 7 7 8 8 8 8 8 8 8 8 8 8 8 8
4 4 4 4 6 6 7 8 9 10 11 12 13 14 13 13 12 13 12 12 12 11 10 9 9 8 8 8 8 8 8 8 8 8 8 8 8 8
6 6 5 8 9 8 8 9 9 10 11 12 14 14 14 13 12 13 13 13 13 13 13 11 11 10 10 9 10 9 8 8 8 8 8 8 8 8
9 10 10 11 11 11 11 11 9 10 11 11 13 14 14 15 13 13 13 13 13 13 13 13 12 13 13 12 10 9 9 8 8 8 8 8 9 8
10 10 11 12 11 11 12 12 13 12 11 10 12 13 14 14 13 13 13 13 13 13 14 13 14 13 14 13 9 9 9 9 9 9 9 9 9 9
11 10 11 11 11 12 13 14 14 13 12 12 11 12 12 12 12 12 13 14 14 13 13 14 15 15 16 16 11 11 11 10 10 10 10 10 10 9
13 12 11 12 12 12 14 15 16 15 11 11 11 11 11 11 12 14 14 18 16 16 15 15 17 19 19 18 14 11 11 11 11 11 10 10 10 10
14 14 13 13 13 13 15 16 17 17 17 17 16 15 16 15 15 14 14 16 20 15 14 14 16 18 19 17 15 14 13 12 11 11 10 10 10 11
15 15 14 12 12 12 13 15 16 16 16 18 19 19 19 19 19 18 16 15 15 15 15 15 15 17 18 17 15 15 14 14 14 14 12 11 11 11
15 15 14 12 12 12 13 13 15 18 19 20 19 20 20 21 21 20 19 18 17 17 19 18 15 16 16 16 18 16 16 15 15 15 14 12 12 11
14 12 12 12 13 14 15 16 20 20 20 19 20 22 24 25 24 22 21 22 20 20 20 16 15 15 15 16 17 19 18 19 16 16 15 15 15 14
15 16 15 15 16 17 18 18 19 19 19 20 21 24 23 22 23 25 24 25 23 23 22 19 21 15 17 20 20 22 19 22 19 17 17 16 15 14
19 22 22 20 18 18 18 18 18 20 19 21 21 21 21 21 25 25 26 23 25 28 26 23 23 18 17 20 24 25 23 21 20 19 20 20 17 15
22 19 20 18 18 18 19 19 21 24 24 22 23 23 23 22 23 26 25 26 26 31 29 30 29 26 24 20 17 22 24 26 24 21 21 23 20 16
18 19 19 19 19 18 19 21 22 27 27 24 24 24 24 26 25 28 28 26 30 33 34 35 29 30 30 28 25 16 26 26 24 20 25 26 25 20
22 19 20 20 19 20 21 24 26 26 26 26 26 28 28 28 29 30 30 32 34 36 31 32 30 33 24 23 28 25 16 24 27 25 21 25 21 14
20 20 22 22 22 24 26 27 26 27 28 28 31 29 31 27 33 34 31 32 34 36 30 31 29 27 32 31 28 28 26 16 17 25 24 28 27 26
20 21 23 23 24 25 26 26 28 28 29 29 31 31 32 30 32 35 33 30 35 36 34 34 29 29 30 30 33 33 28 25 20 16 14 16 27 26
22 23 24 25 25 26 26 27 28 31 31 31 31 32 32 33 36 34 35 36 36 36 37 32 31 30 34 33 33 32 31 28 27 25 22 16 15 15